Flag for U.S.A. Weather past 2 weeks in Ann Arbor, Michigan, U.S.A.

Now
50 °F

Sunny.


Feels Like: 47 °F
Forecast: 31 / 58 °F
Wind: 7 mph from Northwest

Location: Ann Arbor Municipal Airport

Current Time: Oct 23, 2014 at 12:12:16 PM

Latest Report: Oct 23, 2014 at 10:53 AM


Visibility: N/A

Pressure: 30.26 "Hg

Humidity: 68%

Dew point: 40 °F

Location of Ann ArborLocation

Historic Weather in Ann Arbor — Graph

°F

Ann Arbor temperature yesterday

Maximum temperature yesterday: 56 °F (at 2:53 PM)
Minimum temperature yesterday: 39 °F (at 11:53 PM)
Average temperature yesterday: 47 °F

Past Weeks' High & Low Weather Summary

 TemperatureHumidityPressure
High71 °F (Oct 13, 4:53 PM)96% (Oct 12, 4:53 AM)30.36 "Hg (Oct 12, 4:53 AM)
Low25 °F (Oct 19, 7:53 AM)28% (Oct 8, 4:53 PM)29.51 "Hg (Oct 17, 1:53 PM)
Average50 °F73%29.97 "Hg
* Reported Oct 8 10:53 AM — Oct 23 10:53 AM, Ann Arbor, Weather by CustomWeather, © 2014

Note: Actual official high and low records may vary slightly from our data, if they occured in-between our weather recording intervals... More about our weather records

Advertising

Ann Arbor weather history for previous 24 hours

 ConditionsComfort  
Time TempWeatherWind HumidityBarometerVisibility
10:53 AM
Oct 23
50 °FSunny.7 mph68%30.26 "HgN/A
9:53 AM40 °FSunny.No wind89%30.26 "HgN/A
8:53 AM32 °FClear.3 mph92%30.26 "HgN/A
7:53 AM27 °FPassing clouds.3 mph92%30.26 "HgN/A
6:53 AM30 °FClear.No wind89%30.26 "HgN/A
5:53 AM29 °FClear.No wind93%30.27 "HgN/A
4:53 AM30 °FClear.No wind85%30.27 "HgN/A
3:53 AM28 °FClear.No wind96%30.27 "HgN/A
2:53 AM32 °FClear.No wind92%30.28 "HgN/A
1:53 AM32 °FClear.No wind92%30.29 "HgN/A
12:53 AM39 °FClear.No wind86%30.29 "HgN/A
11:53 PM
Oct 22
39 °FClear.6 mph86%30.29 "HgN/A
10:53 PM41 °FClear.5 mph82%30.29 "HgN/A
9:53 PM43 °FClear.6 mph76%30.30 "HgN/A
8:53 PM44 °FClear.6 mph76%30.30 "HgN/A
7:53 PM47 °FClear.8 mph71%30.29 "HgN/A
6:53 PM50 °FSunny.8 mph63%30.29 "HgN/A
5:53 PM53 °FSunny.7 mph56%30.29 "HgN/A
4:53 PM55 °FPassing clouds.6 mph55%30.29 "HgN/A
3:53 PM56 °FPassing clouds.8 mph53%30.29 "HgN/A
2:53 PM56 °FScattered clouds.8 mph55%30.30 "Hg10 mi
1:53 PM53 °FScattered clouds.7 mph59%30.32 "Hg10 mi
12:53 PM51 °FOvercast.7 mph63%30.34 "Hg10 mi
Weather by CustomWeather, © 2014

See weather overviewHow to use our weather pages